PulseSat

PulseSat

COSMOS 2460 (732)

Last updated on March 21, 2019, 3:13 a.m. UTC

1 36402U 10007C   19078.44236169 -.00000036  00000-0  10000-3 0  9997
2 36402  65.7046  43.1037 0002762 302.5112 335.7220  2.13101587 70416
UTC
Height (km)
Latitude
Longitude
Inclination
Orbital Period

Next 30 passes for location: Hong Kong

Rise time Rise Azimuth (degrees) Set time Set Azimuth (degrees) Duration Max altitude (degrees)

No matching passes for this satellites

PulseSat

PulseSat is the new satellites software and hardware trackering solution by Pulsely.
Satellite Two Line Element Set source: US Air Force Space Command

Download PulseSat for iOS
© 2017 Pulsely Limited